Weather History for Bangkok (Suvarnabhumi), Thailand

Change the Weather History Date:

Wednesday, October 17, 2012

  Actual Average (VTBD) Record (VTBD)
Temperature  
Mean Temperature 84 °F -  
Max Temperature 90 °F 89 °F 96 °F (1996)
Min Temperature 78 °F 73 °F 75 °F (2010)
Cooling Degree Days 19    
Growing Degree Days 34 (Base 50)    
Moisture  
Dew Point 74 °F    
Average Humidity 72    
Maximum Humidity 87    
Minimum Humidity 46    
Precipitation  
Precipitation 0.00 in 0.17 in - ()
Sea Level Pressure  
Sea Level Pressure 29.86 in    
Wind  
Wind Speed 3 mph ()    
Max Wind Speed 14 mph    
Max Gust Speed -    
Visibility 4.7 miles    
Events      
Averages and records for this station are not official NWS values.
T = Trace of Precipitation, MM = Missing Value Source: Averaged Metar Reports

Daily Weather History Graph

Daily Weather History Graph

Search for Another Location

Airport:

Trip Planner

Search our weather history database for the weather conditions in past years. The results will help you decide how hot, cold, wet, or windy it might be!

Date:

Astronomy

Oct. 17, 2012 Rise Set
Actual Time 6:06 AM ICT 5:55 PM ICT
Civil Twilight 5:45 AM ICT 6:17 PM ICT
Nautical Twilight 5:20 AM ICT 6:42 PM ICT
Astronomical Twilight 4:55 AM ICT 7:06 PM ICT
Moon 7:39 AM ICT (10/17) 7:30 PM ICT (10/17)
Length of Visible Light 12h 31m
Length of Day
11h 48m
Waxing Crescent, 4% of the Moon is Illuminated
Oct 17
Waxing Crescent
Oct 22
First Quarter
Oct 30
Full
Nov 7
Last Quarter
Nov 14
New

Hourly Weather History & Observations

Time (ICT) Temp. Heat Index Dew Point Humidity Pressure Visibility Wind Dir Wind Speed Gust Speed Precip Events Conditions
12:00 AM 80.6 °F 86.2 °F 75.2 °F 84% 29.92 in 3.7 mi South 2.3 mph - N/A   Mostly Cloudy
12:30 AM 80.6 °F 86.2 °F 75.2 °F 84% 29.92 in 3.7 mi Calm Calm - N/A   Mostly Cloudy
1:00 AM 82 °F - 78 °F 83% 29.88 in 5 mi Calm Calm - -   Mist
1:00 AM 80.6 °F 86.2 °F 75.2 °F 84% 29.89 in 3.1 mi SE 3.5 mph - N/A   Mostly Cloudy
1:30 AM 80.6 °F 86.2 °F 75.2 °F 84% 29.89 in 3.1 mi East 3.5 mph - N/A   Mostly Cloudy
2:00 AM 80.6 °F 86.2 °F 75.2 °F 84% 29.86 in - North - - N/A   Mostly Cloudy
2:30 AM 80.6 °F 86.2 °F 75.2 °F 84% 29.86 in 3.1 mi North 3.5 mph - N/A   Mostly Cloudy
3:00 AM 80.6 °F 86.2 °F 75.2 °F 84% 29.86 in 3.1 mi NNE 3.5 mph - N/A   Mostly Cloudy
3:30 AM 80.6 °F 86.2 °F 75.2 °F 84% 29.86 in 3.1 mi ENE 2.3 mph - N/A   Mostly Cloudy
4:00 AM 80.6 °F 86.2 °F 75.2 °F 84% 29.86 in 4.3 mi NNE 3.5 mph - N/A   Mostly Cloudy
4:30 AM 80.6 °F 86.2 °F 75.2 °F 84% 29.86 in 4.3 mi NNE 4.6 mph - N/A   Mostly Cloudy
5:00 AM 80.6 °F 86.2 °F 75.2 °F 84% 29.86 in 3.7 mi North 3.5 mph - N/A   Mostly Cloudy
5:30 AM 80.6 °F 86.2 °F 75.2 °F 84% 29.86 in 3.1 mi Calm Calm - N/A   Mostly Cloudy
6:00 AM 80.6 °F 86.2 °F 75.2 °F 84% 29.89 in 3.1 mi WNW 3.5 mph - N/A   Mostly Cloudy
6:30 AM 80.6 °F 86.2 °F 75.2 °F 84% 29.89 in 1.9 mi WNW 3.5 mph - N/A   Mostly Cloudy
7:00 AM 80 °F - 77 °F 87% 29.89 in 4 mi Calm Calm - -   Mist
7:00 AM 82.4 °F 89.5 °F 75.2 °F 79% 29.92 in 2.5 mi WNW 3.5 mph - N/A   Mostly Cloudy
7:30 AM 82.4 °F 89.5 °F 75.2 °F 79% 29.92 in 3.1 mi NNW 4.6 mph - N/A   Mostly Cloudy
8:00 AM 84.2 °F 94.1 °F 77.0 °F 79% 29.92 in 3.1 mi NNE 4.6 mph - N/A   Mostly Cloudy
8:30 AM 84.2 °F 92.3 °F 75.2 °F 74% 29.92 in 3.7 mi NNE 4.6 mph - N/A   Mostly Cloudy
9:00 AM 84.2 °F 92.3 °F 75.2 °F 74% 29.95 in 4.3 mi NNE 4.6 mph - N/A   Mostly Cloudy
9:30 AM 86.0 °F 95.1 °F 75.2 °F 70% 29.95 in 4.3 mi NNW 4.6 mph - N/A   Mostly Cloudy
10:00 AM 87.8 °F 97.6 °F 75.2 °F 66% 29.95 in 5.0 mi ESE 4.6 mph - N/A   Mostly Cloudy
10:30 AM 87.8 °F 95.6 °F 73.4 °F 62% 29.92 in 5.6 mi NNW 4.6 mph - N/A   Mostly Cloudy
11:00 AM 89.6 °F 98.2 °F 73.4 °F 59% 29.92 in 6.2 mi NNE 5.8 mph - N/A   Mostly Cloudy
11:30 AM 89.6 °F 98.2 °F 73.4 °F 59% 29.89 in 6.2 mi NE 4.6 mph - N/A   Mostly Cloudy
12:00 PM 91.4 °F 96.8 °F 69.8 °F 49% 29.89 in 6.2 mi ENE 5.8 mph - N/A   Mostly Cloudy
12:30 PM 91.4 °F 96.8 °F 69.8 °F 49% 29.86 in 6.2 mi NNE 5.8 mph - N/A   Mostly Cloudy
1:00 PM 91.4 °F 96.8 °F 69.8 °F 49% 29.86 in 6.2 mi ENE 10.4 mph - N/A   Mostly Cloudy
1:30 PM 91.4 °F 96.8 °F 69.8 °F 49% 29.83 in 6.2 mi ENE 6.9 mph - N/A   Mostly Cloudy
2:00 PM 91.4 °F 95.4 °F 68.0 °F 46% 29.83 in 6.2 mi East 6.9 mph - N/A   Mostly Cloudy
2:30 PM 89.6 °F 94.7 °F 69.8 °F 52% 29.80 in 6.2 mi East 6.9 mph - N/A   Mostly Cloudy
3:00 PM 89.6 °F 96.2 °F 71.6 °F 55% 29.80 in 6.2 mi East 8.1 mph - N/A   Mostly Cloudy
3:30 PM 89.6 °F 94.7 °F 69.8 °F 52% 29.77 in 6.2 mi East 8.1 mph - N/A   Mostly Cloudy
4:00 PM 89.6 °F 94.7 °F 69.8 °F 52% 29.77 in 6.2 mi East 5.8 mph - N/A   Mostly Cloudy
4:30 PM 89.6 °F 96.2 °F 71.6 °F 55% 29.77 in 6.2 mi ESE 4.6 mph - N/A   Mostly Cloudy
5:00 PM 87.8 °F 95.6 °F 73.4 °F 62% 29.77 in 6.2 mi SSE 5.8 mph - N/A   Mostly Cloudy
5:30 PM 87.8 °F 95.6 °F 73.4 °F 62% 29.80 in 5.6 mi SSE 5.8 mph - N/A   Mostly Cloudy
6:00 PM 86.0 °F 96.9 °F 77.0 °F 74% 29.80 in 5.0 mi South 8.1 mph - N/A   Mostly Cloudy
6:30 PM 84.2 °F 92.3 °F 75.2 °F 74% 29.80 in 5.0 mi South 8.1 mph - N/A   Mostly Cloudy
7:00 PM 84 °F - 78 °F 77% 29.81 in 4 mi Calm Calm - -   Mist
7:00 PM 84.2 °F 94.1 °F 77.0 °F 79% 29.83 in 4.3 mi South 5.8 mph - N/A   Mostly Cloudy
7:30 PM 84.2 °F 92.3 °F 75.2 °F 74% 29.83 in 4.3 mi SSW 3.5 mph - N/A   Mostly Cloudy
8:00 PM 84.2 °F 92.3 °F 75.2 °F 74% 29.83 in 4.3 mi SSW 3.5 mph - N/A   Mostly Cloudy
8:30 PM 82.4 °F 88.2 °F 73.4 °F 74% 29.86 in 5.0 mi NNE 13.8 mph - N/A   Mostly Cloudy
9:00 PM 80.6 °F 84.6 °F 71.6 °F 74% 29.86 in 5.6 mi NNW 5.8 mph - N/A   Mostly Cloudy
9:30 PM 80.6 °F 84.6 °F 71.6 °F 74% 29.86 in 5.6 mi NW 4.6 mph - N/A   Mostly Cloudy
10:00 PM 80.6 °F 84.6 °F 71.6 °F 74% 29.89 in 5.6 mi NE 3.5 mph - N/A   Mostly Cloudy
10:30 PM 80.6 °F 84.6 °F 71.6 °F 74% 29.89 in 5.6 mi Calm Calm - N/A   Mostly Cloudy
11:00 PM 80.6 °F 84.6 °F 71.6 °F 74% 29.89 in 5.6 mi ENE 2.3 mph - N/A   Mostly Cloudy
11:30 PM 80.6 °F 84.6 °F 71.6 °F 74% 29.89 in 6.2 mi ENE 2.3 mph - N/A   Mostly Cloudy